BRISAT

Last updated on Fri Jul 10 2026 00:03:04 GMT+0000 (Coordinated Universal Time)

1 41591U 16039A 26190.18933765 .00000000 00000+0 00000+0 0 9997 2 41591 0.0181 9.7163 0001924 99.1174 36.9619 1.00270702 36838
UTC large
Height (km)
Speed (km/s)
/
Latitude / Longitude
Inclination (degrees)
Orbital Period (minutes)
Azimuth
Elevation
Range (km)
Doppler Factor

Next 0 passes for location: London (51.5072 / 0.1276)

No passes found over London.
BRISAT